Year,Month,Day,Hour,Minute,Value (Times are PST for temperature in C)
2005,07,18,00,00,17.80
2005,07,18,00,01,17.70
2005,07,18,00,02,17.70
2005,07,18,00,03,17.70
2005,07,18,00,04,17.70
2005,07,18,00,05,17.70
2005,07,18,00,06,17.70
2005,07,18,00,07,17.70
2005,07,18,00,08,17.70
2005,07,18,00,09,17.70
2005,07,18,00,10,17.70
2005,07,18,00,11,17.70
2005,07,18,00,12,17.70
2005,07,18,00,13,17.80
2005,07,18,00,14,17.80
2005,07,18,00,15,17.80
2005,07,18,00,16,17.80
2005,07,18,00,17,17.80
2005,07,18,00,18,17.80
2005,07,18,00,19,17.80
2005,07,18,00,20,17.80
2005,07,18,00,21,17.80
2005,07,18,00,22,17.80
2005,07,18,00,23,17.80
2005,07,18,00,24,17.70
2005,07,18,00,25,17.70
2005,07,18,00,26,17.70
2005,07,18,00,27,17.60
2005,07,18,00,28,17.60
2005,07,18,00,29,17.60
2005,07,18,00,30,17.60
2005,07,18,00,31,17.50
2005,07,18,00,32,17.50
2005,07,18,00,33,17.50
2005,07,18,00,34,17.50
2005,07,18,00,35,17.50
2005,07,18,00,36,17.50
2005,07,18,00,37,17.40
2005,07,18,00,38,17.40
2005,07,18,00,39,17.40
2005,07,18,00,40,17.40
2005,07,18,00,41,17.40
2005,07,18,00,42,17.40
2005,07,18,00,43,17.40
2005,07,18,00,44,17.40
2005,07,18,00,45,17.40
2005,07,18,00,46,17.40
2005,07,18,00,47,17.50
2005,07,18,00,48,17.50
2005,07,18,00,49,17.50
2005,07,18,00,50,17.50
2005,07,18,00,51,17.60
2005,07,18,00,52,17.60
2005,07,18,00,53,17.60
2005,07,18,00,54,17.60
2005,07,18,00,55,17.60
2005,07,18,00,56,17.50
2005,07,18,00,57,17.50
2005,07,18,00,58,17.50
2005,07,18,00,59,17.50
2005,07,18,01,00,17.50
2005,07,18,01,01,17.40
2005,07,18,01,02,17.40
2005,07,18,01,03,17.40
2005,07,18,01,04,17.40
2005,07,18,01,05,17.30
2005,07,18,01,06,17.30
2005,07,18,01,07,17.30
2005,07,18,01,08,17.30
2005,07,18,01,09,17.30
2005,07,18,01,10,17.30
2005,07,18,01,11,17.30
2005,07,18,01,12,17.20
2005,07,18,01,13,17.20
2005,07,18,01,14,17.20
2005,07,18,01,15,17.20
2005,07,18,01,16,17.10
2005,07,18,01,17,17.10
2005,07,18,01,18,17.10
2005,07,18,01,19,17.10
2005,07,18,01,20,17.10
2005,07,18,01,21,17.10
2005,07,18,01,22,17.10
2005,07,18,01,23,17.00
2005,07,18,01,24,17.00
2005,07,18,01,25,17.00
2005,07,18,01,26,17.00
2005,07,18,01,27,16.90
2005,07,18,01,28,16.90
2005,07,18,01,29,16.90
2005,07,18,01,30,16.80
2005,07,18,01,31,16.80
2005,07,18,01,32,16.80
2005,07,18,01,33,16.70
2005,07,18,01,34,16.70
2005,07,18,01,35,16.70
2005,07,18,01,36,16.70
2005,07,18,01,37,16.70
2005,07,18,01,38,16.70
2005,07,18,01,39,16.70
2005,07,18,01,40,16.70
2005,07,18,01,41,16.60
2005,07,18,01,42,16.60
2005,07,18,01,43,16.60
2005,07,18,01,44,16.60
2005,07,18,01,45,16.50
2005,07,18,01,46,16.40
2005,07,18,01,47,16.40
2005,07,18,01,48,16.40
2005,07,18,01,49,16.40
2005,07,18,01,50,16.40
2005,07,18,01,51,16.40
2005,07,18,01,52,16.40
2005,07,18,01,53,16.40
2005,07,18,01,54,16.40
2005,07,18,01,55,16.40
2005,07,18,01,56,16.40
2005,07,18,01,57,16.40
2005,07,18,01,58,16.40
2005,07,18,01,59,16.40
2005,07,18,02,00,16.40
2005,07,18,02,01,16.50
2005,07,18,02,02,16.60
2005,07,18,02,03,16.60
2005,07,18,02,04,16.60
2005,07,18,02,05,16.60
2005,07,18,02,06,16.60
2005,07,18,02,07,16.60
2005,07,18,02,08,16.60
2005,07,18,02,09,16.60
2005,07,18,02,10,16.60
2005,07,18,02,11,16.60
2005,07,18,02,12,16.60
2005,07,18,02,13,16.60
2005,07,18,02,14,16.60
2005,07,18,02,15,16.60
2005,07,18,02,16,16.70
2005,07,18,02,17,16.70
2005,07,18,02,18,16.70
2005,07,18,02,19,16.70
2005,07,18,02,20,16.70
2005,07,18,02,21,16.70
2005,07,18,02,22,16.70
2005,07,18,02,23,16.70
2005,07,18,02,24,16.70
2005,07,18,02,25,16.70
2005,07,18,02,26,16.70
2005,07,18,02,27,16.70
2005,07,18,02,28,16.70
2005,07,18,02,29,16.70
2005,07,18,02,30,16.70
2005,07,18,02,31,16.70
2005,07,18,02,32,16.70
2005,07,18,02,33,16.70
2005,07,18,02,34,16.70
2005,07,18,02,35,16.70
2005,07,18,02,36,16.70
2005,07,18,02,37,16.70
2005,07,18,02,38,16.70
2005,07,18,02,39,16.70
2005,07,18,02,40,16.70
2005,07,18,02,41,16.70
2005,07,18,02,42,16.70
2005,07,18,02,43,16.70
2005,07,18,02,44,16.70
2005,07,18,02,45,16.70
2005,07,18,02,46,16.70
2005,07,18,02,47,16.70
2005,07,18,02,48,16.70
2005,07,18,02,49,16.70
2005,07,18,02,50,16.60
2005,07,18,02,51,16.60
2005,07,18,02,52,16.60
2005,07,18,02,53,16.50
2005,07,18,02,54,16.40
2005,07,18,02,55,16.40
2005,07,18,02,56,16.40
2005,07,18,02,57,16.40
2005,07,18,02,58,16.40
2005,07,18,02,59,16.40
2005,07,18,03,00,16.30
2005,07,18,03,01,16.30
2005,07,18,03,02,16.30
2005,07,18,03,03,16.20
2005,07,18,03,04,16.20
2005,07,18,03,05,16.20
2005,07,18,03,06,16.10
2005,07,18,03,07,16.10
2005,07,18,03,08,16.10
2005,07,18,03,09,16.10
2005,07,18,03,10,16.10
2005,07,18,03,11,16.10
2005,07,18,03,12,16.10
2005,07,18,03,13,16.00
2005,07,18,03,14,15.90
2005,07,18,03,15,15.90
2005,07,18,03,16,15.90
2005,07,18,03,17,15.90
2005,07,18,03,18,15.80
2005,07,18,03,19,15.80
2005,07,18,03,20,15.80
2005,07,18,03,21,15.80
2005,07,18,03,22,15.70
2005,07,18,03,23,15.70
2005,07,18,03,24,15.60
2005,07,18,03,25,15.60
2005,07,18,03,26,15.60
2005,07,18,03,27,15.50
2005,07,18,03,28,15.50
2005,07,18,03,29,15.40
2005,07,18,03,30,15.40
2005,07,18,03,31,15.40
2005,07,18,03,32,15.30
2005,07,18,03,33,15.30
2005,07,18,03,34,15.30
2005,07,18,03,35,15.30
2005,07,18,03,36,15.30
2005,07,18,03,37,15.20
2005,07,18,03,38,15.20
2005,07,18,03,39,15.20
2005,07,18,03,40,15.20
2005,07,18,03,41,15.10
2005,07,18,03,42,15.10
2005,07,18,03,43,15.00
2005,07,18,03,44,15.00
2005,07,18,03,45,15.00
2005,07,18,03,46,15.00
2005,07,18,03,47,14.90
2005,07,18,03,48,14.90
2005,07,18,03,49,14.90
2005,07,18,03,50,14.90
2005,07,18,03,51,14.90
2005,07,18,03,52,14.80
2005,07,18,03,53,14.80
2005,07,18,03,54,14.80
2005,07,18,03,55,14.80
2005,07,18,03,56,14.80
2005,07,18,03,57,14.70
2005,07,18,03,58,14.70
2005,07,18,03,59,14.70
2005,07,18,04,00,14.70
2005,07,18,04,01,14.70
2005,07,18,04,02,14.60
2005,07,18,04,03,14.60
2005,07,18,04,04,14.60
2005,07,18,04,05,14.60
2005,07,18,04,06,14.60
2005,07,18,04,07,14.60
2005,07,18,04,08,14.60
2005,07,18,04,09,14.60
2005,07,18,04,10,14.60
2005,07,18,04,11,14.60
2005,07,18,04,12,14.60
2005,07,18,04,13,14.60
2005,07,18,04,14,14.60
2005,07,18,04,15,14.60
2005,07,18,04,16,14.60
2005,07,18,04,17,14.60
2005,07,18,04,18,14.60
2005,07,18,04,19,14.60
2005,07,18,04,20,14.60
2005,07,18,04,21,14.60
2005,07,18,04,22,14.60
2005,07,18,04,23,14.60
2005,07,18,04,24,14.60
2005,07,18,04,25,14.60
2005,07,18,04,26,14.60
2005,07,18,04,27,14.60
2005,07,18,04,28,14.60
2005,07,18,04,29,14.50
2005,07,18,04,30,14.50
2005,07,18,04,31,14.50
2005,07,18,04,32,14.50
2005,07,18,04,33,14.50
2005,07,18,04,34,14.50
2005,07,18,04,35,14.50
2005,07,18,04,36,14.50
2005,07,18,04,37,14.50
2005,07,18,04,38,14.40
2005,07,18,04,39,14.40
2005,07,18,04,40,14.40
2005,07,18,04,41,14.40
2005,07,18,04,42,14.40
2005,07,18,04,43,14.40
2005,07,18,04,44,14.40
2005,07,18,04,45,14.40
2005,07,18,04,46,14.40
2005,07,18,04,47,14.40
2005,07,18,04,48,14.40
2005,07,18,04,49,14.40
2005,07,18,04,50,14.40
2005,07,18,04,51,14.40
2005,07,18,04,52,14.40
2005,07,18,04,53,14.40
2005,07,18,04,54,14.40
2005,07,18,04,55,14.40
2005,07,18,04,56,14.30
2005,07,18,04,57,14.30
2005,07,18,04,58,14.30
2005,07,18,04,59,14.30
2005,07,18,05,00,14.30
2005,07,18,05,01,14.30
2005,07,18,05,02,14.30
2005,07,18,05,03,14.30
2005,07,18,05,04,14.30
2005,07,18,05,05,14.30
2005,07,18,05,06,14.30
2005,07,18,05,07,14.30
2005,07,18,05,08,14.30
2005,07,18,05,09,14.30
2005,07,18,05,10,14.30
2005,07,18,05,11,14.30
2005,07,18,05,12,14.30
2005,07,18,05,13,14.30
2005,07,18,05,14,14.30
2005,07,18,05,15,14.30
2005,07,18,05,16,14.30
2005,07,18,05,17,14.20
2005,07,18,05,18,14.20
2005,07,18,05,19,14.20
2005,07,18,05,20,14.20
2005,07,18,05,21,14.20
2005,07,18,05,22,14.20
2005,07,18,05,23,14.20
2005,07,18,05,24,14.20
2005,07,18,05,25,14.20
2005,07,18,05,26,14.20
2005,07,18,05,27,14.20
2005,07,18,05,28,14.20
2005,07,18,05,29,14.20
2005,07,18,05,30,14.20
2005,07,18,05,31,14.30
2005,07,18,05,32,14.30
2005,07,18,05,33,14.30
2005,07,18,05,34,14.30
2005,07,18,05,35,14.30
2005,07,18,05,36,14.30
2005,07,18,05,37,14.30
2005,07,18,05,38,14.30
2005,07,18,05,39,14.30
2005,07,18,05,40,14.30
2005,07,18,05,41,14.40
2005,07,18,05,42,14.40
2005,07,18,05,43,14.40
2005,07,18,05,44,14.40
2005,07,18,05,45,14.40
2005,07,18,05,46,14.40
2005,07,18,05,47,14.40
2005,07,18,05,48,14.40
2005,07,18,05,49,14.40
2005,07,18,05,50,14.40
2005,07,18,05,51,14.40
2005,07,18,05,52,14.40
2005,07,18,05,53,14.40
2005,07,18,05,54,14.40
2005,07,18,05,55,14.40
2005,07,18,05,56,14.50
2005,07,18,05,57,14.50
2005,07,18,05,58,14.50
2005,07,18,05,59,14.60
2005,07,18,06,00,14.70
2005,07,18,06,01,14.70
2005,07,18,06,02,14.80
2005,07,18,06,03,14.90
2005,07,18,06,04,15.00
2005,07,18,06,05,15.00
2005,07,18,06,06,15.10
2005,07,18,06,07,15.10
2005,07,18,06,08,15.20
2005,07,18,06,09,15.30
2005,07,18,06,10,15.30
2005,07,18,06,11,15.30
2005,07,18,06,12,15.30
2005,07,18,06,13,15.40
2005,07,18,06,14,15.40
2005,07,18,06,15,15.50
2005,07,18,06,16,15.60
2005,07,18,06,17,15.60
2005,07,18,06,18,15.70
2005,07,18,06,19,15.80
2005,07,18,06,20,15.80
2005,07,18,06,21,15.90
2005,07,18,06,22,16.00
2005,07,18,06,23,16.10
2005,07,18,06,24,16.20
2005,07,18,06,25,16.30
2005,07,18,06,26,16.30
2005,07,18,06,27,16.40
2005,07,18,06,28,16.50
2005,07,18,06,29,16.60
2005,07,18,06,30,16.70
2005,07,18,06,31,16.80
2005,07,18,06,32,16.90
2005,07,18,06,33,16.90
2005,07,18,06,34,17.00
2005,07,18,06,35,17.10
2005,07,18,06,36,17.10
2005,07,18,06,37,17.10
2005,07,18,06,38,17.10
2005,07,18,06,39,17.30
2005,07,18,06,40,17.40
2005,07,18,06,41,17.40
2005,07,18,06,42,17.50
2005,07,18,06,43,17.50
2005,07,18,06,44,17.50
2005,07,18,06,45,17.50
2005,07,18,06,46,17.50
2005,07,18,06,47,17.50
2005,07,18,06,48,17.50
2005,07,18,06,49,17.50
2005,07,18,06,50,17.50
2005,07,18,06,51,17.50
2005,07,18,06,52,17.60
2005,07,18,06,53,17.60
2005,07,18,06,54,17.70
2005,07,18,06,55,17.70
2005,07,18,06,56,17.80
2005,07,18,06,57,17.90
2005,07,18,06,58,17.90
2005,07,18,06,59,17.90
2005,07,18,07,00,17.90
2005,07,18,07,01,17.90
2005,07,18,07,02,17.90
2005,07,18,07,03,17.90
2005,07,18,07,04,17.90
2005,07,18,07,05,17.90
2005,07,18,07,06,17.90
2005,07,18,07,07,17.90
2005,07,18,07,08,17.90
2005,07,18,07,09,17.90
2005,07,18,07,10,17.90
2005,07,18,07,11,17.90
2005,07,18,07,12,17.90
2005,07,18,07,13,17.90
2005,07,18,07,14,17.90
2005,07,18,07,15,17.90
2005,07,18,07,16,18.00
2005,07,18,07,17,18.10
2005,07,18,07,18,18.10
2005,07,18,07,19,18.10
2005,07,18,07,20,18.10
2005,07,18,07,21,18.00
2005,07,18,07,22,17.90
2005,07,18,07,23,17.90
2005,07,18,07,24,17.90
2005,07,18,07,25,17.80
2005,07,18,07,26,17.80
2005,07,18,07,27,17.80
2005,07,18,07,28,17.80
2005,07,18,07,29,17.80
2005,07,18,07,30,17.80
2005,07,18,07,31,17.80
2005,07,18,07,32,17.90
2005,07,18,07,33,17.90
2005,07,18,07,34,18.00
2005,07,18,07,35,18.10
2005,07,18,07,36,18.20
2005,07,18,07,37,18.30
2005,07,18,07,38,18.40
2005,07,18,07,39,18.50
2005,07,18,07,40,18.50
2005,07,18,07,41,18.60
2005,07,18,07,42,18.60
2005,07,18,07,43,18.60
2005,07,18,07,44,18.60
2005,07,18,07,45,18.70
2005,07,18,07,46,18.70
2005,07,18,07,47,18.80
2005,07,18,07,48,18.90
2005,07,18,07,49,18.90
2005,07,18,07,50,19.00
2005,07,18,07,51,19.10
2005,07,18,07,52,19.10
2005,07,18,07,53,19.10
2005,07,18,07,54,19.20
2005,07,18,07,55,19.30
2005,07,18,07,56,19.40
2005,07,18,07,57,19.50
2005,07,18,07,58,19.60
2005,07,18,07,59,19.60
2005,07,18,08,00,19.80
2005,07,18,08,01,19.90
2005,07,18,08,02,20.00
2005,07,18,08,03,20.10
2005,07,18,08,04,20.20
2005,07,18,08,05,20.20
2005,07,18,08,06,20.20
2005,07,18,08,07,20.20
2005,07,18,08,08,20.30
2005,07,18,08,09,20.30
2005,07,18,08,10,20.30
2005,07,18,08,11,20.40
2005,07,18,08,12,20.30
2005,07,18,08,13,20.40
2005,07,18,08,14,20.40
2005,07,18,08,15,20.50
2005,07,18,08,16,20.60
2005,07,18,08,17,20.60
2005,07,18,08,18,20.60
2005,07,18,08,19,20.60
2005,07,18,08,20,20.60
2005,07,18,08,21,20.50
2005,07,18,08,22,20.50
2005,07,18,08,23,20.30
2005,07,18,08,24,20.30
2005,07,18,08,25,20.20
2005,07,18,08,26,20.10
2005,07,18,08,27,20.10
2005,07,18,08,28,20.10
2005,07,18,08,29,20.10
2005,07,18,08,30,20.10
2005,07,18,08,31,20.10
2005,07,18,08,32,20.10
2005,07,18,08,33,20.10
2005,07,18,08,34,20.10
2005,07,18,08,35,20.10
2005,07,18,08,36,20.10
2005,07,18,08,37,20.20
2005,07,18,08,38,20.20
2005,07,18,08,39,20.20
2005,07,18,08,40,20.10
2005,07,18,08,41,20.10
2005,07,18,08,42,20.20
2005,07,18,08,43,20.20
2005,07,18,08,44,20.20
2005,07,18,08,45,20.30
2005,07,18,08,46,20.40
2005,07,18,08,47,20.50
2005,07,18,08,48,20.60
2005,07,18,08,49,20.60
2005,07,18,08,50,20.70
2005,07,18,08,51,20.80
2005,07,18,08,52,21.00
2005,07,18,08,53,21.00
2005,07,18,08,54,21.10
2005,07,18,08,55,21.10
2005,07,18,08,56,21.10
2005,07,18,08,57,21.10
2005,07,18,08,58,21.00
2005,07,18,08,59,21.00
2005,07,18,09,00,21.00
2005,07,18,09,01,21.00
2005,07,18,09,02,21.10
2005,07,18,09,03,21.20
2005,07,18,09,04,21.20
2005,07,18,09,05,21.10
2005,07,18,09,06,21.10
2005,07,18,09,07,21.00
2005,07,18,09,08,20.90
2005,07,18,09,09,20.90
2005,07,18,09,10,20.90
2005,07,18,09,11,20.90
2005,07,18,09,12,20.80
2005,07,18,09,13,20.80
2005,07,18,09,14,20.80
2005,07,18,09,15,20.90
2005,07,18,09,16,20.90
2005,07,18,09,17,20.80
2005,07,18,09,18,20.70
2005,07,18,09,19,20.70
2005,07,18,09,20,20.80
2005,07,18,09,21,20.80
2005,07,18,09,22,20.80
2005,07,18,09,23,20.90
2005,07,18,09,24,20.90
2005,07,18,09,25,21.00
2005,07,18,09,26,21.00
2005,07,18,09,27,21.10
2005,07,18,09,28,21.10
2005,07,18,09,29,21.10
2005,07,18,09,30,21.20
2005,07,18,09,31,21.40
2005,07,18,09,32,21.60
2005,07,18,09,33,21.60
2005,07,18,09,34,21.60
2005,07,18,09,35,21.60
2005,07,18,09,36,21.60
2005,07,18,09,37,21.60
2005,07,18,09,38,21.70
2005,07,18,09,39,21.60
2005,07,18,09,40,21.60
2005,07,18,09,41,21.50
2005,07,18,09,42,21.40
2005,07,18,09,43,21.20
2005,07,18,09,44,21.20
2005,07,18,09,45,21.30
2005,07,18,09,46,21.30
2005,07,18,09,47,21.30
2005,07,18,09,48,21.30
2005,07,18,09,49,21.50
2005,07,18,09,50,21.60
2005,07,18,09,51,21.70
2005,07,18,09,52,21.90
2005,07,18,09,53,22.10
2005,07,18,09,54,22.20
2005,07,18,09,55,22.20
2005,07,18,09,56,22.20
2005,07,18,09,57,22.10
2005,07,18,09,58,22.10
2005,07,18,09,59,22.00
2005,07,18,10,00,21.90
2005,07,18,10,01,21.90
2005,07,18,10,02,21.90
2005,07,18,10,03,21.90
2005,07,18,10,04,21.90
2005,07,18,10,05,21.60
2005,07,18,10,06,21.30
2005,07,18,10,07,21.30
2005,07,18,10,08,21.30
2005,07,18,10,09,21.30
2005,07,18,10,10,21.40
2005,07,18,10,11,21.60
2005,07,18,10,12,21.60
2005,07,18,10,13,21.60
2005,07,18,10,14,21.60
2005,07,18,10,15,21.70
2005,07,18,10,16,21.90
2005,07,18,10,17,22.00
2005,07,18,10,18,21.90
2005,07,18,10,19,21.70
2005,07,18,10,20,21.60
2005,07,18,10,21,21.60
2005,07,18,10,22,21.60
2005,07,18,10,23,21.60
2005,07,18,10,24,21.50
2005,07,18,10,25,21.40
2005,07,18,10,26,21.60
2005,07,18,10,27,21.60
2005,07,18,10,28,21.60
2005,07,18,10,29,21.60
2005,07,18,10,30,21.60
2005,07,18,10,31,21.60
2005,07,18,10,32,21.70
2005,07,18,10,33,21.90
2005,07,18,10,34,22.00
2005,07,18,10,35,22.10
2005,07,18,10,36,22.10
2005,07,18,10,37,22.10
2005,07,18,10,38,22.20
2005,07,18,10,39,22.30
2005,07,18,10,40,22.40
2005,07,18,10,41,22.60
2005,07,18,10,42,22.70
2005,07,18,10,43,22.80
2005,07,18,10,44,22.70
2005,07,18,10,45,22.50
2005,07,18,10,46,22.30
2005,07,18,10,47,22.20
2005,07,18,10,48,22.30
2005,07,18,10,49,22.40
2005,07,18,10,50,22.50
2005,07,18,10,51,22.50
2005,07,18,10,52,22.40
2005,07,18,10,53,22.20
2005,07,18,10,54,22.00
2005,07,18,10,55,22.00
2005,07,18,10,56,21.90
2005,07,18,10,57,21.90
2005,07,18,10,58,21.90
2005,07,18,10,59,21.70
2005,07,18,11,00,21.60
2005,07,18,11,01,21.60
2005,07,18,11,02,21.60
2005,07,18,11,03,21.60
2005,07,18,11,04,21.60
2005,07,18,11,05,21.70
2005,07,18,11,06,21.90
2005,07,18,11,07,22.10
2005,07,18,11,08,22.20
2005,07,18,11,09,22.10
2005,07,18,11,10,22.00
2005,07,18,11,11,21.90
2005,07,18,11,12,21.90
2005,07,18,11,13,21.90
2005,07,18,11,14,21.90
2005,07,18,11,15,21.80
2005,07,18,11,16,21.70
2005,07,18,11,17,21.60
2005,07,18,11,18,21.60
2005,07,18,11,19,21.60
2005,07,18,11,20,21.70
2005,07,18,11,21,21.80
2005,07,18,11,22,21.90
2005,07,18,11,23,21.90
2005,07,18,11,24,21.70
2005,07,18,11,25,21.60
2005,07,18,11,26,21.80
2005,07,18,11,27,22.10
2005,07,18,11,28,22.30
2005,07,18,11,29,22.50
2005,07,18,11,30,22.60
2005,07,18,11,31,22.60
2005,07,18,11,32,22.70
2005,07,18,11,33,22.70
2005,07,18,11,34,22.70
2005,07,18,11,35,22.60
2005,07,18,11,36,22.50
2005,07,18,11,37,22.30
2005,07,18,11,38,22.30
2005,07,18,11,39,22.40
2005,07,18,11,40,22.50
2005,07,18,11,41,22.50
2005,07,18,11,42,22.30
2005,07,18,11,43,22.20
2005,07,18,11,44,22.20
2005,07,18,11,45,22.30
2005,07,18,11,46,22.30
2005,07,18,11,47,22.50
2005,07,18,11,48,22.40
2005,07,18,11,49,22.40
2005,07,18,11,50,22.40
2005,07,18,11,51,22.50
2005,07,18,11,52,22.40
2005,07,18,11,53,22.30
2005,07,18,11,54,22.10
2005,07,18,11,55,22.20
2005,07,18,11,56,22.20
2005,07,18,11,57,22.20
2005,07,18,11,58,22.10
2005,07,18,11,59,22.00
2005,07,18,12,00,22.10
2005,07,18,12,01,22.30
2005,07,18,12,02,22.30
2005,07,18,12,03,22.40
2005,07,18,12,04,22.40
2005,07,18,12,05,22.30
2005,07,18,12,06,22.10
2005,07,18,12,07,22.00
2005,07,18,12,08,21.80
2005,07,18,12,09,21.60
2005,07,18,12,10,21.60
2005,07,18,12,11,21.60
2005,07,18,12,12,21.80
2005,07,18,12,13,22.10
2005,07,18,12,14,22.20
2005,07,18,12,15,22.30
2005,07,18,12,16,22.40
2005,07,18,12,17,22.30
2005,07,18,12,18,22.20
2005,07,18,12,19,22.00
2005,07,18,12,20,22.00
2005,07,18,12,21,22.00
2005,07,18,12,22,22.00
2005,07,18,12,23,22.00
2005,07,18,12,24,22.00
2005,07,18,12,25,22.00
2005,07,18,12,26,21.90
2005,07,18,12,27,22.00
2005,07,18,12,28,22.00
2005,07,18,12,29,22.10
2005,07,18,12,30,22.10
2005,07,18,12,31,21.90
2005,07,18,12,32,21.90
2005,07,18,12,33,21.80
2005,07,18,12,34,21.70
2005,07,18,12,35,21.60
2005,07,18,12,36,21.60
2005,07,18,12,37,21.60
2005,07,18,12,38,21.60
2005,07,18,12,39,21.80
2005,07,18,12,40,21.90
2005,07,18,12,41,22.00
2005,07,18,12,42,22.00
2005,07,18,12,43,21.90
2005,07,18,12,44,21.80
2005,07,18,12,45,21.70
2005,07,18,12,46,21.70
2005,07,18,12,47,21.80
2005,07,18,12,48,21.80
2005,07,18,12,49,21.70
2005,07,18,12,50,21.70
2005,07,18,12,51,21.60
2005,07,18,12,52,21.40
2005,07,18,12,53,21.40
2005,07,18,12,54,21.40
2005,07,18,12,55,21.50
2005,07,18,12,56,21.60
2005,07,18,12,57,21.70
2005,07,18,12,58,21.70
2005,07,18,12,59,21.80
2005,07,18,13,00,21.80
2005,07,18,13,01,21.80
2005,07,18,13,02,21.90
2005,07,18,13,03,21.90
2005,07,18,13,04,21.90
2005,07,18,13,05,21.80
2005,07,18,13,06,21.70
2005,07,18,13,07,21.90
2005,07,18,13,08,22.10
2005,07,18,13,09,22.10
2005,07,18,13,10,22.10
2005,07,18,13,11,22.10
2005,07,18,13,12,22.30
2005,07,18,13,13,22.50
2005,07,18,13,14,22.60
2005,07,18,13,15,22.60
2005,07,18,13,16,22.60
2005,07,18,13,17,22.70
2005,07,18,13,18,22.80
2005,07,18,13,19,22.90
2005,07,18,13,20,23.00
2005,07,18,13,21,22.90
2005,07,18,13,22,22.80
2005,07,18,13,23,22.70
2005,07,18,13,24,22.80
2005,07,18,13,25,22.80
2005,07,18,13,26,22.90
2005,07,18,13,27,22.90
2005,07,18,13,28,23.00
2005,07,18,13,29,23.10
2005,07,18,13,30,23.20
2005,07,18,13,31,23.30
2005,07,18,13,32,23.20
2005,07,18,13,33,22.90
2005,07,18,13,34,22.80
2005,07,18,13,35,22.70
2005,07,18,13,36,22.80
2005,07,18,13,37,22.80
2005,07,18,13,38,23.00
2005,07,18,13,39,23.20
2005,07,18,13,40,23.30
2005,07,18,13,41,23.10
2005,07,18,13,42,22.90
2005,07,18,13,43,22.80
2005,07,18,13,44,22.70
2005,07,18,13,45,22.50
2005,07,18,13,46,22.40
2005,07,18,13,47,22.30
2005,07,18,13,48,22.20
2005,07,18,13,49,22.00
2005,07,18,13,50,21.80
2005,07,18,13,51,21.60
2005,07,18,13,52,21.40
2005,07,18,13,53,21.30
2005,07,18,13,54,21.30
2005,07,18,13,55,21.30
2005,07,18,13,56,21.10
2005,07,18,13,57,21.10
2005,07,18,13,58,21.00
2005,07,18,13,59,20.90
2005,07,18,14,00,20.50
2005,07,18,14,01,20.00
2005,07,18,14,02,19.60
2005,07,18,14,03,19.40
2005,07,18,14,04,19.10
2005,07,18,14,05,18.90
2005,07,18,14,06,18.90
2005,07,18,14,07,18.90
2005,07,18,14,08,18.90
2005,07,18,14,09,19.10
2005,07,18,14,10,19.10
2005,07,18,14,11,19.00
2005,07,18,14,12,18.80
2005,07,18,14,13,18.60
2005,07,18,14,14,18.50
2005,07,18,14,15,18.50
2005,07,18,14,16,18.50
2005,07,18,14,17,18.60
2005,07,18,14,18,18.90
2005,07,18,14,19,18.90
2005,07,18,14,20,18.90
2005,07,18,14,21,19.00
2005,07,18,14,22,19.00
2005,07,18,14,23,18.70
2005,07,18,14,24,18.50
2005,07,18,14,25,18.30
2005,07,18,14,26,18.30
2005,07,18,14,27,18.30
2005,07,18,14,28,18.20
2005,07,18,14,29,18.20
2005,07,18,14,30,18.20
2005,07,18,14,31,18.10
2005,07,18,14,32,18.10
2005,07,18,14,33,18.10
2005,07,18,14,34,18.10
2005,07,18,14,35,18.00
2005,07,18,14,36,17.30
2005,07,18,14,37,17.30
2005,07,18,14,38,17.50
2005,07,18,14,39,17.80
2005,07,18,14,40,18.00
2005,07,18,14,41,17.90
2005,07,18,14,42,17.90
2005,07,18,14,43,17.90
2005,07,18,14,44,17.70
2005,07,18,14,45,17.80
2005,07,18,14,46,18.00
2005,07,18,14,47,18.20
2005,07,18,14,48,18.40
2005,07,18,14,49,18.60
2005,07,18,14,50,18.60
2005,07,18,14,51,18.20
2005,07,18,14,52,18.00
2005,07,18,14,53,17.80
2005,07,18,14,54,17.80
2005,07,18,14,55,17.90
2005,07,18,14,56,18.00
2005,07,18,14,57,18.00
2005,07,18,14,58,17.90
2005,07,18,14,59,17.90
2005,07,18,15,00,18.10
2005,07,18,15,01,18.30
2005,07,18,15,02,18.50
2005,07,18,15,03,18.60
2005,07,18,15,04,18.60
2005,07,18,15,05,18.50
2005,07,18,15,06,18.40
2005,07,18,15,07,18.40
2005,07,18,15,08,18.40
2005,07,18,15,09,18.50
2005,07,18,15,10,18.50
2005,07,18,15,11,18.50
2005,07,18,15,12,18.60
2005,07,18,15,13,18.70
2005,07,18,15,14,18.90
2005,07,18,15,15,19.10
2005,07,18,15,16,19.20
2005,07,18,15,17,19.30
2005,07,18,15,18,19.50
2005,07,18,15,19,19.70
2005,07,18,15,20,20.00
2005,07,18,15,21,20.10
2005,07,18,15,22,20.20
2005,07,18,15,23,20.30
2005,07,18,15,24,20.50
2005,07,18,15,25,20.60
2005,07,18,15,26,20.90
2005,07,18,15,27,21.10
2005,07,18,15,28,21.30
2005,07,18,15,29,21.60
2005,07,18,15,30,21.80
2005,07,18,15,31,22.00
2005,07,18,15,32,22.30
2005,07,18,15,33,22.60
2005,07,18,15,34,22.90
2005,07,18,15,35,23.30
2005,07,18,15,36,23.70
2005,07,18,15,37,24.10
2005,07,18,15,38,24.50
2005,07,18,15,39,25.00
2005,07,18,15,40,25.20
2005,07,18,15,41,25.40
2005,07,18,15,42,25.40
2005,07,18,15,43,25.40
2005,07,18,15,44,25.40
2005,07,18,15,45,25.50
2005,07,18,15,46,25.60
2005,07,18,15,47,25.60
2005,07,18,15,48,25.70
2005,07,18,15,49,25.70
2005,07,18,15,50,25.80
2005,07,18,15,51,25.80
2005,07,18,15,52,25.80
2005,07,18,15,53,25.90
2005,07,18,15,54,25.90
2005,07,18,15,55,26.00
2005,07,18,15,56,26.10
2005,07,18,15,57,26.10
2005,07,18,15,58,26.10
2005,07,18,15,59,26.10
2005,07,18,16,00,26.20
2005,07,18,16,01,26.40
2005,07,18,16,02,26.50
2005,07,18,16,03,26.70
2005,07,18,16,04,26.70
2005,07,18,16,05,26.70
2005,07,18,16,06,26.70
2005,07,18,16,07,26.70
2005,07,18,16,08,26.60
2005,07,18,16,09,26.50
2005,07,18,16,10,26.30
2005,07,18,16,11,26.10
2005,07,18,16,12,25.90
2005,07,18,16,13,25.70
2005,07,18,16,14,25.70
2005,07,18,16,15,25.60
2005,07,18,16,16,25.50
2005,07,18,16,17,25.40
2005,07,18,16,18,25.40
2005,07,18,16,19,25.30
2005,07,18,16,20,25.30
2005,07,18,16,21,25.20
2005,07,18,16,22,25.20
2005,07,18,16,23,25.20
2005,07,18,16,24,25.20
2005,07,18,16,25,25.30
2005,07,18,16,26,25.30
2005,07,18,16,27,25.30
2005,07,18,16,28,25.30
2005,07,18,16,29,25.10
2005,07,18,16,30,24.90
2005,07,18,16,31,24.70
2005,07,18,16,32,24.70
2005,07,18,16,33,24.50
2005,07,18,16,34,24.40
2005,07,18,16,35,24.30
2005,07,18,16,36,24.20
2005,07,18,16,37,24.20
2005,07,18,16,38,24.20
2005,07,18,16,39,24.20
2005,07,18,16,40,24.10
2005,07,18,16,41,24.10
2005,07,18,16,42,23.90
2005,07,18,16,43,24.00
2005,07,18,16,44,24.10
2005,07,18,16,45,24.10
2005,07,18,16,46,24.10
2005,07,18,16,47,24.10
2005,07,18,16,48,24.00
2005,07,18,16,49,23.90
2005,07,18,16,50,23.80
2005,07,18,16,51,23.90
2005,07,18,16,52,23.90
2005,07,18,16,53,24.00
2005,07,18,16,54,24.10
2005,07,18,16,55,24.10
2005,07,18,16,56,24.10
2005,07,18,16,57,24.10
2005,07,18,16,58,24.10
2005,07,18,16,59,24.10
2005,07,18,17,00,24.10
2005,07,18,17,01,23.90
2005,07,18,17,02,23.90
2005,07,18,17,03,23.90
2005,07,18,17,04,23.90
2005,07,18,17,05,23.90
2005,07,18,17,06,23.90
2005,07,18,17,07,23.90
2005,07,18,17,08,23.90
2005,07,18,17,09,23.80
2005,07,18,17,10,23.80
2005,07,18,17,11,23.80
2005,07,18,17,12,23.80
2005,07,18,17,13,23.80
2005,07,18,17,14,23.80
2005,07,18,17,15,23.80
2005,07,18,17,16,23.80
2005,07,18,17,17,23.90
2005,07,18,17,18,23.90
2005,07,18,17,19,24.00